This is the latest recevied weather packets stored in our database for station/object K1WJY. If no packets are shown the sender has not sent any weather packets the latest 10 day(s).
| Time | Temp. | Humidity | Pressure | Rain* | Wind** | Luminosity | Snow |
|---|---|---|---|---|---|---|---|
| 1777868506 | 4.44° C | 78% | 1007.2 hPa | 0 mm | - | 0 W/m² | - |
| 1777868202 | 5° C | 78% | 1007.2 hPa | 0 mm | - | 0 W/m² | - |
| 1777867898 | 5° C | 77% | 1007.2 hPa | 0 mm | - | 0 W/m² | - |
| 1777867596 | 5° C | 77% | 1007 hPa | 0 mm | - | 0 W/m² | - |
| 1777867293 | 5° C | 77% | 1007 hPa | 0 mm | - | 0 W/m² | - |
| 1777866989 | 5° C | 76% | 1007.1 hPa | 0 mm | - | 0 W/m² | - |
| 1777866686 | 5° C | 76% | 1006.8 hPa | 0 mm | - | 0 W/m² | - |
| 1777866384 | 5° C | 77% | 1007.2 hPa | 0 mm | - | 0 W/m² | - |
| 1777866080 | 5° C | 77% | 1007 hPa | 0 mm | - | 0 W/m² | - |
| 1777865778 | 5° C | 78% | 1007 hPa | 0 mm | - | 0 W/m² | - |
| 1777865475 | 5° C | 78% | 1007 hPa | 0 mm | - | 0 W/m² | - |
| 1777865172 | 5° C | 80% | 1007 hPa | 0 mm | - | 0 W/m² | - |
| 1777864869 | 5° C | 78% | 1006.7 hPa | 0 mm | - | 0 W/m² | - |
| 1777864566 | 5° C | 77% | 1006.7 hPa | 0 mm | - | 0 W/m² | - |
| 1777864262 | 5° C | 79% | 1006.6 hPa | 0 mm | - | 0 W/m² | - |
| 1777863959 | 4.44° C | 82% | 1006.6 hPa | 0 mm | - | 0 W/m² | - |
| 1777863656 | 5° C | 80% | 1006.6 hPa | 0 mm | - | 0 W/m² | - |
| 1777863353 | 5° C | 82% | 1006.4 hPa | 0 mm | - | 0 W/m² | - |
| 1777863050 | 4.44° C | 83% | 1006.5 hPa | 0 mm | - | 0 W/m² | - |
| 1777862747 | 4.44° C | 84% | 1006.2 hPa | 0 mm | - | 0 W/m² | - |
| 1777862444 | 5° C | 82% | 1006.5 hPa | 0 mm | - | 0 W/m² | - |
| 1777862140 | 5° C | 81% | 1006.5 hPa | 0 mm | - | 0 W/m² | - |
| 1777861836 | 5.56° C | 80% | 1006.5 hPa | 0 mm | - | 0 W/m² | - |
| 1777861532 | 5.56° C | 80% | 1006.4 hPa | 0 mm | - | 0 W/m² | - |
| 1777861229 | 5° C | 82% | 1006.5 hPa | 0 mm | - | 0 W/m² | - |
* Rain latest hour (hover to see other rain measurements)
** Current wind speed in m/s (hover to see current wind gust speed)